owner,sensor,date,latitude,longitude,vertical_datum,wind_speed,wind_to_direction,wind_speed_of_gust,qcFlag 
TCOON,ioos:station:TCOON:068:1,2009-11-01T00:00:00Z,27.2970,-97.4049,0.0,3.1,21.0,3.6,'11111222,11111222,11111222' 
TCOON,ioos:station:TCOON:068:1,2009-11-01T01:00:00Z,27.2970,-97.4049,0.0,3.2,17.0,3.7,'11111222,11111222,11111222' 
TCOON,ioos:station:TCOON:068:1,2009-11-01T03:00:00Z,27.2970,-97.4049,0.0,3.4,14.0,4.0,'11111222,11111222,11111222' 
TCOON,ioos:station:TCOON:068:1,2009-11-01T04:00:00Z,27.2970,-97.4049,0.0,3.5,51.0,4.1,'11111222,11111222,11111222' 
TCOON,ioos:station:TCOON:068:1,2009-11-01T05:00:00Z,27.2970,-97.4049,0.0,3.0,46.0,3.2,'11111222,11111222,11111222' 
TCOON,ioos:station:TCOON:068:1,2009-11-01T06:00:00Z,27.2970,-97.4049,0.0,1.4,38.0,1.6,'11111222,11111222,11111222' 
TCOON,ioos:station:TCOON:068:1,2009-11-01T07:00:00Z,27.2970,-97.4049,0.0,1.6,342.0,2.0,'11111222,11111222,11111222' 
TCOON,ioos:station:TCOON:068:1,2009-11-01T08:00:00Z,27.2970,-97.4049,0.0,2.3,343.0,2.7,'11111222,11111222,11111222' 
TCOON,ioos:station:TCOON:068:1,2009-11-01T09:00:00Z,27.2970,-97.4049,0.0,2.5,334.0,2.7,'11111222,11111222,11111222' 
TCOON,ioos:station:TCOON:068:1,2009-11-01T10:00:00Z,27.2970,-97.4049,0.0,4.0,313.0,4.5,'11111222,11111222,11111222' 
TCOON,ioos:station:TCOON:068:1,2009-11-01T11:00:00Z,27.2970,-97.4049,0.0,4.1,311.0,4.5,'11111222,11111222,11111222' 
TCOON,ioos:station:TCOON:068:1,2009-11-01T12:00:00Z,27.2970,-97.4049,0.0,5.1,311.0,5.6,'11111222,11111222,11111222' 
TCOON,ioos:station:TCOON:068:1,2009-11-01T13:00:00Z,27.2970,-97.4049,0.0,5.2,319.0,5.7,'11111222,11111222,11111222' 
TCOON,ioos:station:TCOON:068:1,2009-11-01T14:00:00Z,27.2970,-97.4049,0.0,4.6,320.0,4.9,'11111222,11111222,11111222' 
TCOON,ioos:station:TCOON:068:1,2009-11-01T15:00:00Z,27.2970,-97.4049,0.0,5.3,358.0,5.9,'11111222,11111222,11111222' 
TCOON,ioos:station:TCOON:068:1,2009-11-01T16:00:00Z,27.2970,-97.4049,0.0,5.7,1.0,6.2,'11111222,11111222,11111222' 
TCOON,ioos:station:TCOON:068:1,2009-11-01T17:00:00Z,27.2970,-97.4049,0.0,4.7,9.0,5.8,'11111222,11111222,11111222' 
TCOON,ioos:station:TCOON:068:1,2009-11-01T18:00:00Z,27.2970,-97.4049,0.0,5.1,52.0,6.8,'11111222,11111222,11111222' 
TCOON,ioos:station:TCOON:068:1,2009-11-01T19:00:00Z,27.2970,-97.4049,0.0,5.2,48.0,6.6,'11111222,11111222,11111222' 
TCOON,ioos:station:TCOON:068:1,2009-11-01T20:00:00Z,27.2970,-97.4049,0.0,5.0,50.0,6.0,'11111222,11111222,11111222' 
TCOON,ioos:station:TCOON:068:1,2009-11-01T21:00:00Z,27.2970,-97.4049,0.0,5.3,38.0,6.9,'11111222,11111222,11111222' 
TCOON,ioos:station:TCOON:068:1,2009-11-01T22:00:00Z,27.2970,-97.4049,0.0,5.9,36.0,7.3,'11111222,11111222,11111222' 
TCOON,ioos:station:TCOON:068:1,2009-11-01T23:00:00Z,27.2970,-97.4049,0.0,5.5,39.0,6.0,'11111222,11111222,11111222' 
TCOON,ioos:station:TCOON:068:1,2009-11-02T01:00:00Z,27.2970,-97.4049,0.0,2.5,348.0,2.7,'11111222,11111222,11111222' 
TCOON,ioos:station:TCOON:068:1,2009-11-02T02:00:00Z,27.2970,-97.4049,0.0,2.3,358.0,2.7,'11111222,11111222,11111222' 
TCOON,ioos:station:TCOON:068:1,2009-11-02T03:00:00Z,27.2970,-97.4049,0.0,2.0,1.0,2.3,'11111222,11111222,11111222' 
TCOON,ioos:station:TCOON:068:1,2009-11-02T04:00:00Z,27.2970,-97.4049,0.0,2.3,360.0,2.5,'11111222,11144222,11111222' 
TCOON,ioos:station:TCOON:068:1,2009-11-02T05:00:00Z,27.2970,-97.4049,0.0,2.5,1.0,2.9,'11111222,11111222,11111222' 
TCOON,ioos:station:TCOON:068:1,2009-11-02T08:00:00Z,27.2970,-97.4049,0.0,3.1,15.0,3.4,'11111222,11111222,11111222' 
TCOON,ioos:station:TCOON:068:1,2009-11-02T10:00:00Z,27.2970,-97.4049,0.0,3.5,47.0,4.1,'11111222,11111222,11111222' 
TCOON,ioos:station:TCOON:068:1,2009-11-02T11:00:00Z,27.2970,-97.4049,0.0,2.6,41.0,3.0,'11111222,11111222,11111222' 
TCOON,ioos:station:TCOON:068:1,2009-11-02T12:00:00Z,27.2970,-97.4049,0.0,3.7,348.0,4.4,'11111222,11111222,11111222' 
TCOON,ioos:station:TCOON:068:1,2009-11-02T13:00:00Z,27.2970,-97.4049,0.0,4.4,347.0,5.1,'11111222,11111222,11111222' 
TCOON,ioos:station:TCOON:068:1,2009-11-02T14:00:00Z,27.2970,-97.4049,0.0,4.6,347.0,5.1,'11111222,11111222,11111222' 
TCOON,ioos:station:TCOON:068:1,2009-11-02T15:00:00Z,27.2970,-97.4049,0.0,5.2,353.0,5.8,'11111222,11111222,11111222' 
TCOON,ioos:station:TCOON:068:1,2009-11-02T16:00:00Z,27.2970,-97.4049,0.0,5.5,357.0,6.2,'11111222,11111222,11111222' 
TCOON,ioos:station:TCOON:068:1,2009-11-02T17:00:00Z,27.2970,-97.4049,0.0,5.1,358.0,6.5,'11111222,11111222,11111222' 
TCOON,ioos:station:TCOON:068:1,2009-11-02T18:00:00Z,27.2970,-97.4049,0.0,4.7,37.0,6.2,'11111222,11111222,11111222' 
TCOON,ioos:station:TCOON:068:1,2009-11-02T19:00:00Z,27.2970,-97.4049,0.0,5.4,37.0,6.4,'11111222,11111222,11111222' 
TCOON,ioos:station:TCOON:068:1,2009-11-02T20:00:00Z,27.2970,-97.4049,0.0,6.0,37.0,8.3,'11111222,11111222,11111222' 
TCOON,ioos:station:TCOON:068:1,2009-11-02T21:00:00Z,27.2970,-97.4049,0.0,7.0,44.0,7.7,'11111222,11111222,11111222' 
TCOON,ioos:station:TCOON:068:1,2009-11-02T22:00:00Z,27.2970,-97.4049,0.0,7.2,43.0,8.8,'11111222,11111222,11111222' 
TCOON,ioos:station:TCOON:068:1,2009-11-02T23:00:00Z,27.2970,-97.4049,0.0,7.0,50.0,8.2,'11111222,11111222,11111222' 
TCOON,ioos:station:TCOON:068:1,2009-11-03T00:00:00Z,27.2970,-97.4049,0.0,5.2,42.0,5.9,'11111222,11111222,11111222' 
TCOON,ioos:station:TCOON:068:1,2009-11-03T02:00:00Z,27.2970,-97.4049,0.0,4.0,43.0,4.5,'11111222,11111222,11111222' 
TCOON,ioos:station:TCOON:068:1,2009-11-03T03:00:00Z,27.2970,-97.4049,0.0,3.3,33.0,3.7,'11111222,11111222,11111222' 
TCOON,ioos:station:TCOON:068:1,2009-11-03T04:00:00Z,27.2970,-97.4049,0.0,3.0,2.0,3.3,'11111222,11111222,11111222' 
TCOON,ioos:station:TCOON:068:1,2009-11-03T05:00:00Z,27.2970,-97.4049,0.0,3.2,353.0,3.5,'11111222,11111222,11111222' 
TCOON,ioos:station:TCOON:068:1,2009-11-03T06:00:00Z,27.2970,-97.4049,0.0,2.9,349.0,3.2,'11111222,11111222,11111222' 
TCOON,ioos:station:TCOON:068:1,2009-11-03T07:00:00Z,27.2970,-97.4049,0.0,3.8,353.0,4.4,'11111222,11111222,11111222' 
TCOON,ioos:station:TCOON:068:1,2009-11-03T08:00:00Z,27.2970,-97.4049,0.0,4.1,347.0,4.7,'11111222,11111222,11111222' 
TCOON,ioos:station:TCOON:068:1,2009-11-03T09:00:00Z,27.2970,-97.4049,0.0,5.0,339.0,5.6,'11111222,11111222,11111222' 
TCOON,ioos:station:TCOON:068:1,2009-11-03T10:00:00Z,27.2970,-97.4049,0.0,5.1,340.0,5.7,'11111222,11111222,11111222' 
TCOON,ioos:station:TCOON:068:1,2009-11-03T11:00:00Z,27.2970,-97.4049,0.0,4.8,353.0,5.3,'11111222,11111222,11111222' 
TCOON,ioos:station:TCOON:068:1,2009-11-03T12:00:00Z,27.2970,-97.4049,0.0,4.4,345.0,4.9,'11111222,11111222,11111222' 
TCOON,ioos:station:TCOON:068:1,2009-11-03T13:00:00Z,27.2970,-97.4049,0.0,5.2,347.0,6.1,'11111222,11111222,11111222' 
TCOON,ioos:station:TCOON:068:1,2009-11-03T14:00:00Z,27.2970,-97.4049,0.0,4.5,351.0,5.0,'11111222,11111222,11111222' 
TCOON,ioos:station:TCOON:068:1,2009-11-03T15:00:00Z,27.2970,-97.4049,0.0,6.4,1.0,7.0,'11111222,11111222,11111222' 
TCOON,ioos:station:TCOON:068:1,2009-11-03T16:00:00Z,27.2970,-97.4049,0.0,6.5,356.0,7.2,'11111222,11111222,11111222' 
TCOON,ioos:station:TCOON:068:1,2009-11-03T17:00:00Z,27.2970,-97.4049,0.0,6.4,356.0,6.8,'11111222,11111222,11111222' 
TCOON,ioos:station:TCOON:068:1,2009-11-03T18:00:00Z,27.2970,-97.4049,0.0,5.5,1.0,6.1,'11111222,11111222,11111222' 
TCOON,ioos:station:TCOON:068:1,2009-11-03T19:00:00Z,27.2970,-97.4049,0.0,3.9,15.0,4.7,'11111222,11111222,11111222' 
TCOON,ioos:station:TCOON:068:1,2009-11-03T20:00:00Z,27.2970,-97.4049,0.0,3.6,49.0,4.4,'11111222,11111222,11111222' 
TCOON,ioos:station:TCOON:068:1,2009-11-03T21:00:00Z,27.2970,-97.4049,0.0,4.5,3.0,5.2,'11111222,11111222,11111222' 
TCOON,ioos:station:TCOON:068:1,2009-11-03T22:00:00Z,27.2970,-97.4049,0.0,5.7,39.0,6.8,'11111222,11111222,11111222' 
TCOON,ioos:station:TCOON:068:1,2009-11-03T23:00:00Z,27.2970,-97.4049,0.0,5.7,35.0,6.5,'11111222,11111222,11111222' 
TCOON,ioos:station:TCOON:068:1,2009-11-04T01:00:00Z,27.2970,-97.4049,0.0,3.6,40.0,4.2,'11111222,11111222,11111222' 
TCOON,ioos:station:TCOON:068:1,2009-11-04T02:00:00Z,27.2970,-97.4049,0.0,3.5,32.0,3.8,'11111222,11111222,11111222' 
TCOON,ioos:station:TCOON:068:1,2009-11-04T03:00:00Z,27.2970,-97.4049,0.0,3.5,47.0,3.8,'11111222,11111222,11111222' 
TCOON,ioos:station:TCOON:068:1,2009-11-04T04:00:00Z,27.2970,-97.4049,0.0,2.9,29.0,3.3,'11111222,11111222,11111222' 
TCOON,ioos:station:TCOON:068:1,2009-11-04T05:00:00Z,27.2970,-97.4049,0.0,2.5,44.0,2.8,'11111222,11111222,11111222' 
TCOON,ioos:station:TCOON:068:1,2009-11-04T06:00:00Z,27.2970,-97.4049,0.0,1.9,32.0,2.2,'11111222,11111222,11111222' 
TCOON,ioos:station:TCOON:068:1,2009-11-04T07:00:00Z,27.2970,-97.4049,0.0,2.1,338.0,2.4,'11111222,11111222,11111222' 
TCOON,ioos:station:TCOON:068:1,2009-11-04T08:00:00Z,27.2970,-97.4049,0.0,2.3,337.0,2.7,'11111222,11111222,11111222' 
TCOON,ioos:station:TCOON:068:1,2009-11-04T09:00:00Z,27.2970,-97.4049,0.0,3.2,342.0,3.7,'11111222,11111222,11111222' 
TCOON,ioos:station:TCOON:068:1,2009-11-04T10:00:00Z,27.2970,-97.4049,0.0,3.9,340.0,4.3,'11111222,11111222,11111222' 
TCOON,ioos:station:TCOON:068:1,2009-11-04T11:00:00Z,27.2970,-97.4049,0.0,4.2,337.0,4.7,'11111222,11111222,11111222' 
TCOON,ioos:station:TCOON:068:1,2009-11-04T13:00:00Z,27.2970,-97.4049,0.0,5.2,348.0,5.8,'11111222,11111222,11111222' 
TCOON,ioos:station:TCOON:068:1,2009-11-04T14:00:00Z,27.2970,-97.4049,0.0,4.7,349.0,5.4,'11111222,11111222,11111222' 
TCOON,ioos:station:TCOON:068:1,2009-11-04T15:00:00Z,27.2970,-97.4049,0.0,4.3,360.0,4.9,'11111222,11144222,11111222' 
TCOON,ioos:station:TCOON:068:1,2009-11-04T16:00:00Z,27.2970,-97.4049,0.0,4.4,354.0,4.7,'11111222,11111222,11111222' 
TCOON,ioos:station:TCOON:068:1,2009-11-04T17:00:00Z,27.2970,-97.4049,0.0,3.9,8.0,25.0,'11111222,11111222,11111222' 
TCOON,ioos:station:TCOON:068:1,2009-11-04T18:00:00Z,27.2970,-97.4049,0.0,3.2,10.0,3.6,'11111222,11111222,11111222' 
TCOON,ioos:station:TCOON:068:1,2009-11-04T20:00:00Z,27.2970,-97.4049,0.0,3.9,45.0,4.7,'11111222,11111222,11111222' 
TCOON,ioos:station:TCOON:068:1,2009-11-04T21:00:00Z,27.2970,-97.4049,0.0,5.1,43.0,5.9,'11111222,11111222,11111222' 
TCOON,ioos:station:TCOON:068:1,2009-11-04T22:00:00Z,27.2970,-97.4049,0.0,5.8,38.0,6.8,'11111222,11111222,11111222' 
TCOON,ioos:station:TCOON:068:1,2009-11-04T23:00:00Z,27.2970,-97.4049,0.0,6.7,45.0,7.8,'11111222,11111222,11111222' 
TCOON,ioos:station:TCOON:068:1,2009-11-05T00:00:00Z,27.2970,-97.4049,0.0,6.4,47.0,7.9,'11111222,11111222,11111222' 
TCOON,ioos:station:TCOON:068:1,2009-11-05T02:00:00Z,27.2970,-97.4049,0.0,5.6,50.0,6.2,'11111222,11111222,11111222' 
TCOON,ioos:station:TCOON:068:1,2009-11-05T03:00:00Z,27.2970,-97.4049,0.0,5.3,55.0,5.9,'11111222,11111222,11111222' 
TCOON,ioos:station:TCOON:068:1,2009-11-05T04:00:00Z,27.2970,-97.4049,0.0,4.8,52.0,5.5,'11111222,11111222,11111222' 
TCOON,ioos:station:TCOON:068:1,2009-11-05T05:00:00Z,27.2970,-97.4049,0.0,3.4,39.0,4.0,'11111222,11111222,11111222' 
TCOON,ioos:station:TCOON:068:1,2009-11-05T06:00:00Z,27.2970,-97.4049,0.0,2.7,19.0,3.2,'11111222,11111222,11111222' 
TCOON,ioos:station:TCOON:068:1,2009-11-05T07:00:00Z,27.2970,-97.4049,0.0,3.9,36.0,4.4,'11111222,11111222,11111222' 
TCOON,ioos:station:TCOON:068:1,2009-11-05T08:00:00Z,27.2970,-97.4049,0.0,3.2,33.0,3.9,'11111222,11111222,11111222' 
TCOON,ioos:station:TCOON:068:1,2009-11-05T09:00:00Z,27.2970,-97.4049,0.0,2.4,359.0,2.6,'11111222,11111222,11111222' 
TCOON,ioos:station:TCOON:068:1,2009-11-05T10:00:00Z,27.2970,-97.4049,0.0,3.1,346.0,3.4,'11111222,11111222,11111222' 
TCOON,ioos:station:TCOON:068:1,2009-11-05T11:00:00Z,27.2970,-97.4049,0.0,3.8,354.0,4.3,'11111222,11111222,11111222' 
TCOON,ioos:station:TCOON:068:1,2009-11-05T13:00:00Z,27.2970,-97.4049,0.0,4.4,348.0,4.8,'11111222,11111222,11111222' 
TCOON,ioos:station:TCOON:068:1,2009-11-05T14:00:00Z,27.2970,-97.4049,0.0,4.9,355.0,5.4,'11111222,11111222,11111222' 
TCOON,ioos:station:TCOON:068:1,2009-11-05T15:00:00Z,27.2970,-97.4049,0.0,5.2,1.0,5.8,'11111222,11111222,11111222' 
TCOON,ioos:station:TCOON:068:1,2009-11-05T16:00:00Z,27.2970,-97.4049,0.0,6.1,358.0,6.7,'11111222,11111222,11111222' 
TCOON,ioos:station:TCOON:068:1,2009-11-05T17:00:00Z,27.2970,-97.4049,0.0,5.1,358.0,5.7,'11111222,11111222,11111222' 
TCOON,ioos:station:TCOON:068:1,2009-11-05T18:00:00Z,27.2970,-97.4049,0.0,4.1,12.0,5.3,'11111222,11111222,11111222' 
TCOON,ioos:station:TCOON:068:1,2009-11-05T19:00:00Z,27.2970,-97.4049,0.0,5.8,41.0,99.0,'11111222,11111222,11144222' 
TCOON,ioos:station:TCOON:068:1,2009-11-05T20:00:00Z,27.2970,-97.4049,0.0,6.2,50.0,7.1,'11111222,11111222,11111222' 
TCOON,ioos:station:TCOON:068:1,2009-11-05T21:00:00Z,27.2970,-97.4049,0.0,6.4,47.0,7.3,'11111222,11111222,11111222' 
TCOON,ioos:station:TCOON:068:1,2009-11-05T22:00:00Z,27.2970,-97.4049,0.0,6.9,61.0,7.9,'11111222,11111222,11111222' 
TCOON,ioos:station:TCOON:068:1,2009-11-05T23:00:00Z,27.2970,-97.4049,0.0,5.6,53.0,6.5,'11111222,11111222,11111222' 
TCOON,ioos:station:TCOON:068:1,2009-11-06T00:00:00Z,27.2970,-97.4049,0.0,4.4,47.0,4.8,'11111222,11111222,11111222' 
TCOON,ioos:station:TCOON:068:1,2009-11-06T01:00:00Z,27.2970,-97.4049,0.0,3.9,45.0,4.2,'11111222,11111222,11111222' 
TCOON,ioos:station:TCOON:068:1,2009-11-06T02:00:00Z,27.2970,-97.4049,0.0,3.4,33.0,4.0,'11111222,11111222,11111222' 
TCOON,ioos:station:TCOON:068:1,2009-11-06T03:00:00Z,27.2970,-97.4049,0.0,3.6,37.0,4.3,'11111222,11111222,11111222' 
TCOON,ioos:station:TCOON:068:1,2009-11-06T04:00:00Z,27.2970,-97.4049,0.0,3.4,32.0,4.0,'11111222,11111222,11111222' 
TCOON,ioos:station:TCOON:068:1,2009-11-06T05:00:00Z,27.2970,-97.4049,0.0,1.2,22.0,1.5,'11111222,11111222,11111222' 
TCOON,ioos:station:TCOON:068:1,2009-11-06T06:00:00Z,27.2970,-97.4049,0.0,2.4,340.0,2.6,'11111222,11111222,11111222' 
TCOON,ioos:station:TCOON:068:1,2009-11-06T07:00:00Z,27.2970,-97.4049,0.0,2.2,345.0,2.4,'11111222,11111222,11111222' 
TCOON,ioos:station:TCOON:068:1,2009-11-06T08:00:00Z,27.2970,-97.4049,0.0,2.0,355.0,2.2,'11111222,11111222,11111222' 
TCOON,ioos:station:TCOON:068:1,2009-11-06T09:00:00Z,27.2970,-97.4049,0.0,2.5,360.0,2.7,'11111222,11144222,11111222' 
TCOON,ioos:station:TCOON:068:1,2009-11-06T10:00:00Z,27.2970,-97.4049,0.0,2.5,2.0,2.6,'11111222,11111222,11111222' 
TCOON,ioos:station:TCOON:068:1,2009-11-06T11:00:00Z,27.2970,-97.4049,0.0,2.8,357.0,3.0,'11111222,11111222,11111222' 
TCOON,ioos:station:TCOON:068:1,2009-11-06T12:00:00Z,27.2970,-97.4049,0.0,2.7,352.0,3.0,'11111222,11111222,11111222' 
TCOON,ioos:station:TCOON:068:1,2009-11-06T14:00:00Z,27.2970,-97.4049,0.0,3.3,3.0,3.8,'11111222,11111222,11111222' 
TCOON,ioos:station:TCOON:068:1,2009-11-06T15:00:00Z,27.2970,-97.4049,0.0,3.3,11.0,3.6,'11111222,11111222,11111222' 
TCOON,ioos:station:TCOON:068:1,2009-11-06T16:00:00Z,27.2970,-97.4049,0.0,3.0,12.0,3.6,'11111222,11111222,11111222' 
TCOON,ioos:station:TCOON:068:1,2009-11-06T17:00:00Z,27.2970,-97.4049,0.0,4.2,52.0,5.3,'11111222,11111222,11111222' 
TCOON,ioos:station:TCOON:068:1,2009-11-06T18:00:00Z,27.2970,-97.4049,0.0,5.1,70.0,6.2,'11111222,11111222,11111222' 
TCOON,ioos:station:TCOON:068:1,2009-11-06T19:00:00Z,27.2970,-97.4049,0.0,4.5,73.0,6.2,'11111222,11111222,11111222' 
TCOON,ioos:station:TCOON:068:1,2009-11-06T20:00:00Z,27.2970,-97.4049,0.0,4.8,65.0,5.9,'11111222,11111222,11111222' 
TCOON,ioos:station:TCOON:068:1,2009-11-06T21:00:00Z,27.2970,-97.4049,0.0,4.3,73.0,5.5,'11111222,11111222,11111222' 
TCOON,ioos:station:TCOON:068:1,2009-11-06T23:00:00Z,27.2970,-97.4049,0.0,5.0,81.0,5.8,'11111222,11111222,11111222' 
TCOON,ioos:station:TCOON:068:1,2009-11-07T00:00:00Z,27.2970,-97.4049,0.0,4.5,89.0,5.4,'11111222,11111222,11111222' 
TCOON,ioos:station:TCOON:068:1,2009-11-07T01:00:00Z,27.2970,-97.4049,0.0,3.8,87.0,4.3,'11111222,11111222,11111222' 
TCOON,ioos:station:TCOON:068:1,2009-11-07T02:00:00Z,27.2970,-97.4049,0.0,3.2,89.0,3.9,'11111222,11111222,11111222' 
TCOON,ioos:station:TCOON:068:1,2009-11-07T03:00:00Z,27.2970,-97.4049,0.0,3.4,93.0,4.1,'11111222,11111222,11111222' 
TCOON,ioos:station:TCOON:068:1,2009-11-07T04:00:00Z,27.2970,-97.4049,0.0,3.8,95.0,4.7,'11111222,11111222,11111222' 
TCOON,ioos:station:TCOON:068:1,2009-11-07T05:00:00Z,27.2970,-97.4049,0.0,4.0,96.0,4.8,'11111222,11111222,11111222' 
TCOON,ioos:station:TCOON:068:1,2009-11-07T06:00:00Z,27.2970,-97.4049,0.0,3.2,85.0,3.7,'11111222,11111222,11111222' 
TCOON,ioos:station:TCOON:068:1,2009-11-07T07:00:00Z,27.2970,-97.4049,0.0,3.3,85.0,3.5,'11111222,11111222,11111222' 
TCOON,ioos:station:TCOON:068:1,2009-11-07T08:00:00Z,27.2970,-97.4049,0.0,3.1,87.0,3.5,'11111222,11111222,11111222' 
TCOON,ioos:station:TCOON:068:1,2009-11-07T09:00:00Z,27.2970,-97.4049,0.0,3.1,81.0,3.6,'11111222,11111222,11111222' 
TCOON,ioos:station:TCOON:068:1,2009-11-07T10:00:00Z,27.2970,-97.4049,0.0,2.6,79.0,2.9,'11111222,11111222,11111222' 
TCOON,ioos:station:TCOON:068:1,2009-11-07T11:00:00Z,27.2970,-97.4049,0.0,3.0,76.0,3.2,'11111222,11111222,11111222' 
TCOON,ioos:station:TCOON:068:1,2009-11-07T12:00:00Z,27.2970,-97.4049,0.0,3.4,79.0,3.6,'11111222,11111222,11111222' 
TCOON,ioos:station:TCOON:068:1,2009-11-07T13:00:00Z,27.2970,-97.4049,0.0,3.1,71.0,3.3,'11111222,11111222,11111222' 
TCOON,ioos:station:TCOON:068:1,2009-11-07T15:00:00Z,27.2970,-97.4049,0.0,4.6,76.0,5.2,'11111222,11111222,11111222' 
TCOON,ioos:station:TCOON:068:1,2009-11-07T16:00:00Z,27.2970,-97.4049,0.0,3.9,85.0,4.5,'11111222,11111222,11111222' 
TCOON,ioos:station:TCOON:068:1,2009-11-07T17:00:00Z,27.2970,-97.4049,0.0,4.7,66.0,5.5,'11111222,11111222,11111222' 
TCOON,ioos:station:TCOON:068:1,2009-11-07T18:00:00Z,27.2970,-97.4049,0.0,4.6,51.0,5.1,'11111222,11111222,11111222' 
TCOON,ioos:station:TCOON:068:1,2009-11-07T19:00:00Z,27.2970,-97.4049,0.0,5.8,48.0,6.4,'11111222,11111222,11111222' 
TCOON,ioos:station:TCOON:068:1,2009-11-07T20:00:00Z,27.2970,-97.4049,0.0,6.6,57.0,8.0,'11111222,11111222,11111222' 
TCOON,ioos:station:TCOON:068:1,2009-11-07T21:00:00Z,27.2970,-97.4049,0.0,6.3,61.0,6.9,'11111222,11111222,11111222' 
TCOON,ioos:station:TCOON:068:1,2009-11-07T22:00:00Z,27.2970,-97.4049,0.0,6.0,58.0,6.8,'11111222,11111222,11111222' 
TCOON,ioos:station:TCOON:068:1,2009-11-07T23:00:00Z,27.2970,-97.4049,0.0,6.3,60.0,7.4,'11111222,11111222,11111222' 
TCOON,ioos:station:TCOON:068:1,2009-11-08T00:00:00Z,27.2970,-97.4049,0.0,5.9,60.0,7.0,'11111222,11111222,11111222' 
TCOON,ioos:station:TCOON:068:1,2009-11-08T01:00:00Z,27.2970,-97.4049,0.0,6.0,59.0,6.9,'11111222,11111222,11111222' 
TCOON,ioos:station:TCOON:068:1,2009-11-08T02:00:00Z,27.2970,-97.4049,0.0,5.3,57.0,6.2,'11111222,11111222,11111222' 
TCOON,ioos:station:TCOON:068:1,2009-11-08T03:00:00Z,27.2970,-97.4049,0.0,6.8,70.0,7.7,'11111222,11111222,11111222' 
TCOON,ioos:station:TCOON:068:1,2009-11-08T04:00:00Z,27.2970,-97.4049,0.0,5.8,78.0,6.5,'11111222,11111222,11111222' 
TCOON,ioos:station:TCOON:068:1,2009-11-08T05:00:00Z,27.2970,-97.4049,0.0,5.1,81.0,6.1,'11111222,11111222,11111222' 
TCOON,ioos:station:TCOON:068:1,2009-11-08T06:00:00Z,27.2970,-97.4049,0.0,4.5,60.0,5.0,'11111222,11111222,11111222' 
TCOON,ioos:station:TCOON:068:1,2009-11-08T07:00:00Z,27.2970,-97.4049,0.0,3.8,63.0,4.5,'11111222,11111222,11111222' 
TCOON,ioos:station:TCOON:068:1,2009-11-08T09:00:00Z,27.2970,-97.4049,0.0,2.5,111.0,3.0,'11111222,11111222,11111222' 
TCOON,ioos:station:TCOON:068:1,2009-11-08T10:00:00Z,27.2970,-97.4049,0.0,3.0,77.0,3.3,'11111222,11111222,11111222' 
TCOON,ioos:station:TCOON:068:1,2009-11-08T11:00:00Z,27.2970,-97.4049,0.0,4.3,127.0,5.7,'11111222,11111222,11111222' 
TCOON,ioos:station:TCOON:068:1,2009-11-08T13:00:00Z,27.2970,-97.4049,0.0,4.9,71.0,5.4,'11111222,11111222,11111222' 
TCOON,ioos:station:TCOON:068:1,2009-11-08T14:00:00Z,27.2970,-97.4049,0.0,9.1,89.0,10.8,'11111222,11111222,11111222' 
TCOON,ioos:station:TCOON:068:1,2009-11-08T15:00:00Z,27.2970,-97.4049,0.0,9.7,71.0,10.8,'11111222,11111222,11111222' 
TCOON,ioos:station:TCOON:068:1,2009-11-08T17:00:00Z,27.2970,-97.4049,0.0,2.7,355.0,3.5,'11111222,11111222,11111222' 
TCOON,ioos:station:TCOON:068:1,2009-11-08T18:00:00Z,27.2970,-97.4049,0.0,3.5,359.0,3.8,'11111222,11111222,11111222' 
TCOON,ioos:station:TCOON:068:1,2009-11-08T19:00:00Z,27.2970,-97.4049,0.0,4.0,355.0,4.7,'11111222,11111222,11111222' 
TCOON,ioos:station:TCOON:068:1,2009-11-08T20:00:00Z,27.2970,-97.4049,0.0,5.8,360.0,6.5,'11111222,11144222,11111222' 
TCOON,ioos:station:TCOON:068:1,2009-11-08T21:00:00Z,27.2970,-97.4049,0.0,6.2,6.0,7.0,'11111222,11111222,11111222' 
TCOON,ioos:station:TCOON:068:1,2009-11-08T22:00:00Z,27.2970,-97.4049,0.0,6.2,6.0,7.3,'11111222,11111222,11111222' 
TCOON,ioos:station:TCOON:068:1,2009-11-08T23:00:00Z,27.2970,-97.4049,0.0,5.0,18.0,6.2,'11111222,11111222,11111222' 
TCOON,ioos:station:TCOON:068:1,2009-11-09T00:00:00Z,27.2970,-97.4049,0.0,6.0,19.0,11.4,'11111222,11111222,11111222' 
TCOON,ioos:station:TCOON:068:1,2009-11-09T01:00:00Z,27.2970,-97.4049,0.0,7.6,11.0,9.8,'11111222,11111222,11111222' 
TCOON,ioos:station:TCOON:068:1,2009-11-09T02:00:00Z,27.2970,-97.4049,0.0,6.8,6.0,8.5,'11111222,11111222,11111222' 
TCOON,ioos:station:TCOON:068:1,2009-11-09T03:00:00Z,27.2970,-97.4049,0.0,7.5,7.0,8.9,'11111222,11111222,11111222' 
TCOON,ioos:station:TCOON:068:1,2009-11-09T04:00:00Z,27.2970,-97.4049,0.0,7.2,19.0,8.8,'11111222,11111222,11111222' 
TCOON,ioos:station:TCOON:068:1,2009-11-09T05:00:00Z,27.2970,-97.4049,0.0,7.6,21.0,10.0,'11111222,11111222,11111222' 
TCOON,ioos:station:TCOON:068:1,2009-11-09T06:00:00Z,27.2970,-97.4049,0.0,6.7,14.0,7.9,'11111222,11111222,11111222' 
TCOON,ioos:station:TCOON:068:1,2009-11-09T07:00:00Z,27.2970,-97.4049,0.0,6.5,9.0,7.7,'11111222,11111222,11111222' 
TCOON,ioos:station:TCOON:068:1,2009-11-09T08:00:00Z,27.2970,-97.4049,0.0,6.8,8.0,8.4,'11111222,11111222,11111222' 
TCOON,ioos:station:TCOON:068:1,2009-11-09T09:00:00Z,27.2970,-97.4049,0.0,5.9,345.0,7.1,'11111222,11111222,11111222' 
TCOON,ioos:station:TCOON:068:1,2009-11-09T10:00:00Z,27.2970,-97.4049,0.0,4.9,329.0,5.6,'11111222,11111222,11111222' 
TCOON,ioos:station:TCOON:068:1,2009-11-09T11:00:00Z,27.2970,-97.4049,0.0,5.5,340.0,6.3,'11111222,11111222,11111222' 
TCOON,ioos:station:TCOON:068:1,2009-11-09T12:00:00Z,27.2970,-97.4049,0.0,6.1,343.0,6.8,'11111222,11111222,11111222' 
TCOON,ioos:station:TCOON:068:1,2009-11-09T13:00:00Z,27.2970,-97.4049,0.0,5.7,342.0,7.0,'11111222,11111222,11111222' 
TCOON,ioos:station:TCOON:068:1,2009-11-09T15:00:00Z,27.2970,-97.4049,0.0,7.4,341.0,8.4,'11111222,11111222,11111222' 
TCOON,ioos:station:TCOON:068:1,2009-11-09T16:00:00Z,27.2970,-97.4049,0.0,8.3,351.0,9.2,'11111222,11111222,11111222' 
TCOON,ioos:station:TCOON:068:1,2009-11-09T17:00:00Z,27.2970,-97.4049,0.0,6.8,3.0,7.9,'11111222,11111222,11111222' 
TCOON,ioos:station:TCOON:068:1,2009-11-09T18:00:00Z,27.2970,-97.4049,0.0,6.4,10.0,7.5,'11111222,11111222,11111222' 
TCOON,ioos:station:TCOON:068:1,2009-11-09T20:00:00Z,27.2970,-97.4049,0.0,6.6,335.0,8.6,'11111222,11111222,11111222' 
TCOON,ioos:station:TCOON:068:1,2009-11-09T22:00:00Z,27.2970,-97.4049,0.0,4.5,323.0,5.1,'11111222,11111222,11111222' 
TCOON,ioos:station:TCOON:068:1,2009-11-09T23:00:00Z,27.2970,-97.4049,0.0,4.7,343.0,5.4,'11111222,11111222,11111222' 
TCOON,ioos:station:TCOON:068:1,2009-11-10T00:00:00Z,27.2970,-97.4049,0.0,2.3,335.0,2.8,'11111222,11111222,11111222' 
TCOON,ioos:station:TCOON:068:1,2009-11-10T01:00:00Z,27.2970,-97.4049,0.0,3.5,1.0,4.0,'11111222,11111222,11111222' 
TCOON,ioos:station:TCOON:068:1,2009-11-10T02:00:00Z,27.2970,-97.4049,0.0,3.2,342.0,3.6,'11111222,11111222,11111222' 
TCOON,ioos:station:TCOON:068:1,2009-11-10T03:00:00Z,27.2970,-97.4049,0.0,4.0,348.0,4.7,'11111222,11111222,11111222' 
TCOON,ioos:station:TCOON:068:1,2009-11-10T04:00:00Z,27.2970,-97.4049,0.0,3.2,358.0,3.6,'11111222,11111222,11111222' 
TCOON,ioos:station:TCOON:068:1,2009-11-10T06:00:00Z,27.2970,-97.4049,0.0,5.2,346.0,5.8,'11111222,11111222,11111222' 
TCOON,ioos:station:TCOON:068:1,2009-11-10T07:00:00Z,27.2970,-97.4049,0.0,5.0,326.0,5.9,'11111222,11111222,11111222' 
TCOON,ioos:station:TCOON:068:1,2009-11-10T08:00:00Z,27.2970,-97.4049,0.0,5.3,339.0,6.8,'11111222,11111222,11111222' 
TCOON,ioos:station:TCOON:068:1,2009-11-10T09:00:00Z,27.2970,-97.4049,0.0,5.2,326.0,5.8,'11111222,11111222,11111222' 